Abilene, TX

12:04 PM CDT on July 24, 2017 (GMT -0500)
Abilene Regional

Weather History for KABI - September, 2012

Change the Weather History Date:

Tuesday, September 4, 2012

  Actual Average Record
Temperature  
Mean Temperature 91 °F 79 °F  
Max Temperature 102 °F 91 °F 106 °F (2000)
Min Temperature 79 °F 68 °F 51 °F (1891)
Degree Days  
Heating Degree Days 0 0  
Month to date heating degree days 0 0  
Since 1 July heating degree days 0 0  
Cooling Degree Days 26 14  
Month to date cooling degree days 96 59  
Year to date cooling degree days 2584 2004  
Growing Degree Days 40 (Base 50)    
Moisture  
Dew Point 59 °F    
Average Humidity 45    
Maximum Humidity 67    
Minimum Humidity 22    
Precipitation  
Precipitation 0.00 in 0.07 in 2.20 in (1961)
Month to date precipitation 0.00 0.31  
Year to date precipitation 13.66 17.27  
Sea Level Pressure  
Sea Level Pressure 29.82 in    
Wind  
Wind Speed 11 mph (South)    
Max Wind Speed 21 mph    
Max Gust Speed 28 mph    
Visibility 10 miles    
Events      
T = Trace of Precipitation, MM = Missing Value Source: NWS Daily Summary

Daily Weather History Graph

Daily Weather History Graph

Search for Another Location

Airport or City:

Trip Planner

Search our weather history database for the weather conditions in past years. The results will help you decide how hot, cold, wet, or windy it might be!

Date:

Astronomy

Sep. 04, 2012 Rise Set
Actual Time 7:15 AM CDT 7:58 PM CDT
Civil Twilight 6:51 AM CDT 8:23 PM CDT
Nautical Twilight 6:21 AM CDT 8:52 PM CDT
Astronomical Twilight 5:51 AM CDT 9:22 PM CDT
Moon 10:11 PM CDT (9/4) 11:06 AM CDT (9/4)
Length of Visible Light 13h 32m
Length of Day
12h 42m
Waning Gibbous, 83% of the Moon is Illuminated
Sep 4
Waning Gibbous
Sep 8
Last Quarter
Sep 15
New
Sep 22
First Quarter
Sep 29
Full

Hourly Weather History & Observations

Time (CDT) Temp. Heat Index Dew Point Humidity Pressure Visibility Wind Dir Wind Speed Gust Speed Precip Events Conditions
12:52 AM 84.9 °F 83.7 °F 55.9 °F 37% 29.84 in 10.0 mi South 9.2 mph - N/A   Clear
1:52 AM 84.0 °F 83.3 °F 57.0 °F 40% 29.84 in 10.0 mi South 10.4 mph - N/A   Clear
2:52 AM 82.9 °F 82.6 °F 57.9 °F 42% 29.83 in 10.0 mi South 9.2 mph - N/A   Clear
3:52 AM 81.0 °F 81.3 °F 59.0 °F 47% 29.84 in 10.0 mi South 4.6 mph - N/A   Clear
4:52 AM 80.1 °F 81.1 °F 61.0 °F 52% 29.84 in 10.0 mi South 4.6 mph - N/A   Clear
5:52 AM 80.1 °F 81.2 °F 62.1 °F 54% 29.85 in 10.0 mi South 8.1 mph - N/A   Clear
6:52 AM 79.0 °F - 64.0 °F 60% 29.86 in 10.0 mi South 6.9 mph - N/A   Clear
7:52 AM 79.0 °F - 66.0 °F 64% 29.88 in 10.0 mi South 8.1 mph - N/A   Clear
8:52 AM 81.0 °F 83.8 °F 68.0 °F 65% 29.89 in 10.0 mi SSW 13.8 mph 21.9 mph N/A   Clear
9:52 AM 84.9 °F 88.8 °F 69.1 °F 59% 29.89 in 10.0 mi SSW 18.4 mph 21.9 mph N/A   Clear
10:52 AM 90.0 °F 93.6 °F 68.0 °F 48% 29.89 in 10.0 mi SSW 13.8 mph - N/A   Clear
11:52 AM 93.9 °F 97.5 °F 66.9 °F 41% 29.87 in 10.0 mi South 11.5 mph 21.9 mph N/A   Clear
12:52 PM 96.1 °F 96.9 °F 62.1 °F 32% 29.85 in 10.0 mi SSW 8.1 mph 19.6 mph N/A   Clear
1:52 PM 99.0 °F 98.1 °F 57.9 °F 25% 29.82 in 10.0 mi South 8.1 mph 20.7 mph N/A   Clear
2:52 PM 100.9 °F 100.5 °F 57.9 °F 24% 29.80 in 10.0 mi South 11.5 mph 17.3 mph N/A   Clear
3:52 PM 100.9 °F 99.6 °F 55.9 °F 22% 29.78 in 10.0 mi SE 12.7 mph 19.6 mph N/A   Clear
4:52 PM 100.9 °F 99.6 °F 55.9 °F 22% 29.76 in 10.0 mi South 10.4 mph - N/A   Scattered Clouds
5:52 PM 100.9 °F 100.5 °F 57.9 °F 24% 29.75 in 10.0 mi SE 16.1 mph 27.6 mph N/A   Clear
6:52 PM 99.0 °F 97.7 °F 55.9 °F 24% 29.75 in 10.0 mi SSE 16.1 mph 19.6 mph N/A   Clear
7:52 PM 96.1 °F - 52.0 °F 22% 29.74 in 10.0 mi SE 12.7 mph - N/A   Clear
8:52 PM 91.0 °F - 51.1 °F 25% 29.76 in 10.0 mi SE 10.4 mph - N/A   Clear
9:52 PM 88.0 °F - 52.0 °F 29% 29.78 in 10.0 mi SE 10.4 mph - N/A   Clear
10:52 PM 87.1 °F - 51.1 °F 29% 29.78 in 10.0 mi SSE 9.2 mph - N/A   Clear
11:52 PM 86.0 °F 84.2 °F 54.0 °F 33% 29.79 in 10.0 mi SSE 11.5 mph - N/A   Clear